sat.trackr.live / text

‹ back to catalog

STARLINK-34940

NORAD 65397 · 2025-191U

PAYLOAD ACTIVE UNKNOWN

§ Identity

Operator
Country
US
Launch date
2025-08-30
Launch site
AFWTR
Launch vehicle
Mass (kg)
RCS (m²)

Purposes: comms

External: N2YO · Heavens-Above · Gunter

§ Orbital elements

Epoch: 2026-09-20T20:26:30.195168Z

Period
93.91 min
Inclination
97.2832°
Eccentricity
0.0001869
Mean motion
15.33461726 rev/d
Perigee alt
464.2 km
Apogee alt
466.8 km
Semi-major
6,843.6 km
B*
3.5137e-4
RAAN
129.8907°
Arg perigee
90.6941°
Mean anomaly
269.4516°
Rev number
5,969

§ Raw data

STARLINK-349401 65397U 25191U   26263.85173837  .00011292  00000+0  35137-3 0  99952 65397  97.2832 129.8907 0001869  90.6941 269.4516 15.33461726 59692

JSON: /api/v1/satellites/65397 · /tle

For live sub-satellite position, see the globe view (requires WebGL).

§ Visibility from observer

Set your observer location to see the next 7 days of passes ≥ 10°. The values pass through the URL so the page stays shareable.

No JS? Fill the form by hand. The geolocation button needs JavaScript.